Weather History for KEET - July, 2013

Change the Weather History Date:

Sunday, July 21, 2013

  Actual Average Record
Temperature  
Mean Temperature 79 °F 81 °F  
Max Temperature 88 °F 91 °F 99 °F (2008)
Min Temperature 70 °F 71 °F 62 °F (1962)
Cooling Degree Days 14 16  
Month to date cooling degree days 283 328  
Year to date cooling degree days 947 971  
Since 1 June cooling degree days 695 702  
Growing Degree Days 29 (Base 50)    
Moisture  
Dew Point 72 °F    
Average Humidity 82    
Maximum Humidity 100    
Minimum Humidity 63    
Precipitation  
Precipitation 0.32 in 0.14 in 1.34 in (1970)
Month to date precipitation 5.41 3.24  
Year to date precipitation 39.11 31.80  
Sea Level Pressure  
Sea Level Pressure 30.01 in    
Wind  
Wind Speed 4 mph (South)    
Max Wind Speed 12 mph    
Max Gust Speed 16 mph    
Visibility 8 miles    
Events Fog , Rain    
T = Trace of Precipitation, MM = Missing Value Source: NWS Daily Summary

Daily Weather History Graph

Daily Weather History Graph

Search for Another Location

Airport or City:

Trip Planner

Search our weather history database for the weather conditions in past years. The results will help you decide how hot, cold, wet, or windy it might be!

Date:

Astronomy

Jul. 21, 2013 Rise Set
Actual Time 5:52 AM CDT 7:53 PM CDT
Civil Twilight 5:25 AM CDT 8:21 PM CDT
Nautical Twilight 4:51 AM CDT 8:55 PM CDT
Astronomical Twilight 4:15 AM CDT 9:31 PM CDT
Moon 6:53 PM CDT (7/21) 4:37 AM CDT (7/21)
Length of Visible Light 14h 56m
Length of Day
14h 00m
Waxing Gibbous, 98% of the Moon is Illuminated
Jul 21
Waxing Gibbous
Jul 22
Full
Jul 29
Last Quarter
Aug 6
New
Aug 14
First Quarter

Hourly Weather History & Observations

Time (CDT) Temp. Heat Index Dew Point Humidity Pressure Visibility Wind Dir Wind Speed Gust Speed Precip Events Conditions
12:42 AM 75.2 °F - 73.4 °F 94% 30.02 in 10.0 mi Calm Calm - N/A   Mostly Cloudy
12:53 AM 75.9 °F - 73.0 °F 91% 30.00 in 10.0 mi Calm Calm - N/A   Mostly Cloudy
1:13 AM 75.2 °F - 73.4 °F 94% 30.02 in 10.0 mi Calm Calm - N/A   Partly Cloudy
1:53 AM 75.0 °F - 73.0 °F 94% 29.98 in 10.0 mi SE 3.5 mph - N/A   Clear
2:53 AM 75.0 °F - 73.0 °F 94% 29.97 in 10.0 mi South 4.6 mph - N/A   Clear
3:12 AM 75.2 °F - 73.4 °F 94% 29.99 in 10.0 mi South 5.8 mph - N/A   Mostly Cloudy
3:27 AM 75.2 °F - 73.4 °F 94% 29.99 in 10.0 mi South 3.5 mph - N/A   Scattered Clouds
3:53 AM 73.9 °F - 72.0 °F 93% 29.97 in 10.0 mi Calm Calm - N/A   Partly Cloudy
4:53 AM 73.0 °F - 72.0 °F 96% 29.99 in 10.0 mi Calm Calm - N/A   Partly Cloudy
5:12 AM 73.4 °F - 71.6 °F 94% 30.01 in 9.0 mi Calm Calm - N/A   Mostly Cloudy
5:53 AM 73.0 °F - 72.0 °F 96% 30.00 in 8.0 mi Calm Calm - N/A   Overcast
6:20 AM 73.4 °F - 73.4 °F 100% 30.02 in 1.8 mi Calm Calm - N/A   Overcast
6:31 AM 73.4 °F - 73.4 °F 100% 30.03 in 0.5 mi SSW 3.5 mph - N/A Fog Fog
6:53 AM 73.0 °F - 73.0 °F 100% 30.01 in 0.2 mi Variable 3.5 mph - N/A Fog Fog
7:07 AM 73.4 °F - 73.4 °F 100% 30.04 in 0.5 mi Calm Calm - N/A Fog Fog
7:53 AM 73.0 °F - 73.0 °F 100% 30.03 in 2.0 mi SSW 3.5 mph - N/A   Overcast
8:01 AM 73.4 °F - 73.4 °F 100% 30.05 in 5.0 mi Variable 3.5 mph - N/A   Overcast
8:08 AM 73.4 °F - 73.4 °F 100% 30.05 in 6.0 mi Variable 3.5 mph - N/A   Overcast
8:33 AM 75.2 °F - 73.4 °F 94% 30.05 in 8.0 mi Calm Calm - N/A   Overcast
8:53 AM 75.9 °F - 72.0 °F 87% 30.04 in 9.0 mi SSW 3.5 mph - N/A   Overcast
9:28 AM 78.8 °F - 73.4 °F 83% 30.04 in 10.0 mi Calm Calm - N/A   Scattered Clouds
9:53 AM 79.0 °F - 73.0 °F 82% 30.03 in 10.0 mi SW 3.5 mph - N/A   Partly Cloudy
10:53 AM 80.1 °F 84.2 °F 73.0 °F 79% 30.03 in 10.0 mi SSW 5.8 mph - N/A   Clear
11:53 AM 82.9 °F 89.4 °F 73.9 °F 74% 30.01 in 10.0 mi SSW 3.5 mph - N/A   Clear
12:48 PM 82.4 °F 88.2 °F 73.4 °F 74% 30.01 in 2.0 mi Calm Calm - 0.03 in Rain Light Rain
12:53 PM 81.0 °F 86.7 °F 75.0 °F 82% 29.99 in 1.8 mi Calm Calm - 0.09 in Rain Rain
1:08 PM 84.2 °F 92.3 °F 75.2 °F 74% 30.00 in 10.0 mi Calm Calm - 0.00 in   Mostly Cloudy
1:53 PM 87.1 °F 95.4 °F 73.9 °F 65% 29.97 in 10.0 mi Variable 5.8 mph - 0.00 in   Partly Cloudy
2:53 PM 87.1 °F 94.5 °F 73.0 °F 63% 29.95 in 10.0 mi SSW 6.9 mph - N/A   Partly Cloudy
3:53 PM 84.0 °F 90.2 °F 73.0 °F 69% 29.95 in 10.0 mi SSW 4.6 mph - N/A   Clear
4:53 PM 84.0 °F 91.2 °F 73.9 °F 72% 29.96 in 10.0 mi South 9.2 mph - N/A   Clear
5:53 PM 82.9 °F 88.8 °F 73.0 °F 72% 29.96 in 10.0 mi South 9.2 mph - N/A   Partly Cloudy
6:53 PM 81.0 °F 85.2 °F 72.0 °F 74% 29.97 in 10.0 mi Variable 4.6 mph - N/A   Clear
7:49 PM 78.8 °F - 71.6 °F 78% 30.01 in 10.0 mi Calm Calm - N/A   Mostly Cloudy
7:53 PM 78.1 °F - 71.1 °F 79% 29.99 in 10.0 mi East 3.5 mph - N/A   Mostly Cloudy
8:53 PM 75.9 °F - 69.1 °F 79% 30.02 in 10.0 mi Calm Calm - N/A   Overcast
9:53 PM 75.0 °F - 69.1 °F 82% 30.04 in 10.0 mi NNW 6.9 mph - N/A   Overcast
10:18 PM 71.6 °F - 69.8 °F 94% 30.06 in 1.8 mi Variable 3.5 mph - 0.15 in Rain Heavy Rain
10:31 PM 71.6 °F - 69.8 °F 94% 30.07 in 3.0 mi Variable 3.5 mph - 0.23 in Rain Light Rain
10:39 PM 71.6 °F - 69.8 °F 94% 30.06 in 10.0 mi East 3.5 mph - 0.23 in   Overcast
10:53 PM 71.1 °F - 69.1 °F 93% 30.04 in 10.0 mi Calm Calm - 0.23 in Rain Light Rain
11:53 PM 71.1 °F - 69.1 °F 93% 30.02 in 10.0 mi Calm Calm - 0.00 in   Clear